SCP
0 0 0 0 0 0 0 0 0 0 0 0 0 0 0 0 0 0 0 0 0 0 0 0 0 0 0 0 0 0 0 0 0 0 0 0 0 0 0 0 0 0 0
0 0 0 0 0 0 0 0 0 0 0 0 0 0 0 0 0 0 0 0 0 0 0 0 0 0 0 0 0 0 0 0 0 0 0 0 0 0 0 0 0 0 0
0 0 0 0 0 0 0 0 0 0 0 0 0 0 0 0 0 0 0 0 0 0 0 0 0 0 0 0 0 0 0 0 0 0 0 0 0 0 0 0 0 0 0
0 0 0 0 0 0 0 0 0 0 0 0 0 0 0 0 0 0 0 0 0 0 0 0 0 0 0 0 0 0 0 0 0 0 0 0 0 0 0 0 0 0 0
0 0 0 0 0 0 0 0 0 0 0 0 0 0 0 0 0 0 0 0 0 0 0 0 0 0 0 0 0 0 0 0 0 0 0 0 0 0 0 0 0 0 0
0 0 0 0 0 0 0 0 0 0 0 0 0 0 0 0 0 0 0 0 0 0 0 0 0 0 0 0 0 0 0 0 0 0 0 0 0 0 0 0 0 0 0
0 0 0 0 0 0 0 0 0 0 0 0 0 0 0 0 0 0 0 0 0 0 0 0 0 0 0 0 0 0 0 0 0 0 0 0 0 0 0 0 0 0 0
0 0 0 0 0 0 0 0 0 0 0 0 0 0 0 0 0 0 0 0 0 0 0 0 0 0 0 0 0 0 0 0 0 0 0 0 0 0 0 0 0 0 0
0 0 0 0 0 0 0 0 0 0 0 0 0 0 0 0 0 0 0 0 0 0 0 0 0 0 0 0 0 0 0 0 0 0 0 0 0 0 0 0 0 0 0
0 0 0 0 0 0 0 0 0 0 0 0 0 0 0 0 0 0 0 0 0 0 0 0 0 0 0 0 0 0 0 0 0 0 0 0 0 0 0 0 0 0 0
0 0 0 0 0 0 0 0 0 0 0 0 0 0 0 0 0 0 0 0 0 0 0 0 0 0 0 0 0 0 0 0 0 0 0 0 0 0 0 0 0 0 0
0 0 0 0 0 0 0 0 0 0 0 0 0 0 0 0 0 0 0 0 0 0 0 0 0 0 0 0 0 0 0 0 0 0 0 0 0 0 0 0 0 0 0
1 1 1 1 1 0 0 0 0 0 0 0 0 0 0 0 0 0 0 0 0 0 0 0 0 0 0 0 0 0 0 0 0 0 0 0 0 0 0 0 0 0 0
1 1 1 1 1 1 0 0 0 0 0 0 0 0 0 0 0 0 0 0 0 0 0 0 0 0 0 0 0 0 0 0 0 0 0 0 0 0 0 0 0 0 0
1 1 1 1 1 1 0 0 0 0 0 0 0 0 0 0 0 0 0 0 0 0 0 0 0 0 1 0 0 0 0 0 0 0 0 0 0 0 0 0 0 0 0
1 1 1 1 1 1 1 0 0 0 0 0 0 0 0 0 0 0 0 0 0 0 0 0 0 0 0 0 0 0 0 0 0 0 0 0 0 0 0 0 0 0 0
1 1 1 1 1 1 1 0 0 0 0 0 0 0 0 0 0 0 0 0 0 0 0 0 0 0 0 0 0 0 0 0 0 0 0 0 0 0 0 0 0 0 0
1 1 1 1 1 1 0 0 0 0 0 0 0 0 0 0 0 0 0 0 0 0 0 0 0 0 0 1 1 0 0 0 0 0 0 0 0 0 0 0 0 0 0
1 1 1 1 1 1 0 0 0 0 0 0 0 0 0 0 0 0 0 0 0 0 0 0 0 0 0 0 1 0 0 0 0 0 0 0 0 0 0 0 0 0 0
1 1 1 1 1 1 0 0 0 0 0 0 0 0 0 0 0 0 0 0 0 0 0 0 0 0 0 0 0 0 0 0 0 0 0 0 0 0 0 0 0 0 0
1 1 1 1 1 0 0 0 0 0 0 0 0 0 0 0 0 0 0 0 0 0 0 0 0 0 0 0 0 0 0 0 0 0 0 0 0 0 0 0 0 0 0
1 1 1 1 0 0 0 0 0 0 0 0 0 0 0 0 0 0 0 0 0 0 0 0 0 0 0 0 0 0 0 0 0 0 0 0 0 0 0 0 0 0 0
1 1 1 1 0 0 0 0 0 0 0 0 0 0 0 0 0 0 0 0 0 0 0 0 0 0 0 0 0 0 0 0 0 0 0 0 0 0 0 0 0 0 0
1 1 1 1 0 0 0 0 0 0 0 0 0 0 0 0 0 0 0 0 0 0 0 0 0 0 0 0 0 0 0 0 0 0 0 0 0 0 0 0 0 0 0
1 1 1 1 0 0 0 0 0 0 0 0 0 0 0 0 0 0 0 0 0 0 0 0 0 0 0 0 0 0 0 0 0 0 0 0 0 0 0 0 0 0 0
1 1 1 1 1 0 0 0 0 0 0 0 0 0 0 0 0 0 0 0 0 0 0 0 0 0 0 0 0 0 0 0 0 0 0 0 0 0 0 0 0 0 0
Wind_Speed
1 1 1 0 0 1 1 1 0 0 1 1 1 2 2 2 3 3 3 8 10 10 10 10 9 9 9 10 10 10 10 10 10 10 9 9 10 10 10 10 10 10 10
1 1 1 0 0 0 1 1 1 1 0 0 1 1 1 2 3 4 4 5 8 9 9 9 9 9 9 9 9 9 10 11 10 10 10 10 10 10 10 10 10 10 10
1 1 0 0 0 0 0 1 1 1 1 1 1 1 1 2 3 4 4 4 4 7 8 8 8 7 8 8 8 8 8 9 10 10 11 10 10 10 10 10 10 10 10
1 1 1 1 0 0 0 1 0 0 0 0 1 1 2 2 3 3 4 4 4 4 6 9 8 7 7 8 8 8 8 7 8 9 10 10 10 10 10 10 10 10 10
2 1 1 1 1 1 1 1 1 0 0 0 1 2 1 2 2 3 3 4 4 4 5 7 8 8 8 8 8 8 7 7 7 7 8 10 11 10 10 10 11 11 10
2 1 0 1 1 1 2 2 1 0 0 1 2 1 1 1 2 2 3 2 3 4 5 5 5 5 7 6 7 8 8 8 7 7 7 8 9 10 10 10 10 11 11
2 2 2 1 1 2 2 2 1 1 1 1 1 1 2 2 2 2 2 1 2 2 3 5 4 3 4 6 5 5 6 8 7 7 7 7 8 8 10 10 10 10 11
2 1 1 1 1 1 1 2 2 2 1 0 1 1 1 1 1 2 2 2 2 2 2 3 4 4 3 3 3 5 5 6 6 7 7 7 7 8 9 9 10 11 11
2 2 3 2 2 1 1 1 1 2 2 1 1 0 1 0 1 1 2 2 2 1 1 2 3 4 4 4 4 4 5 5 5 6 7 7 6 7 8 8 8 9 10
1 1 2 2 2 2 2 2 2 2 2 2 1 1 1 0 1 1 1 1 2 2 1 2 3 3 3 3 4 5 6 5 6 6 5 6 7 7 8 8 9 9 10
1 1 2 2 2 2 2 3 2 2 2 2 2 2 1 1 1 1 1 1 1 2 2 2 1 2 3 3 4 5 7 7 7 6 6 6 6 8 8 9 10 10 10
1 2 1 1 1 1 1 1 1 2 2 3 2 2 1 1 1 1 1 2 1 1 2 2 2 2 2 3 4 6 7 8 7 7 6 6 6 7 9 10 11 11 11
1 1 1 1 1 1 1 1 1 1 2 2 2 2 2 2 2 1 1 2 2 1 1 2 2 2 2 2 3 7 7 8 8 7 7 7 6 7 7 8 10 11 11
1 1 1 1 1 1 1 1 1 1 1 2 2 2 3 3 3 2 1 1 2 2 1 1 1 2 1 2 4 6 4 7 8 7 7 7 7 7 7 7 8 9 9
1 2 1 1 1 1 1 1 1 1 1 1 2 2 2 2 2 2 2 1 1 2 2 1 0 1 1 2 4 3 3 6 7 7 8 8 7 7 7 7 7 8 8
2 2 2 1 1 1 1 1 1 1 1 1 1 2 2 3 3 2 3 2 1 1 2 2 1 1 0 1 2 2 3 6 8 8 9 9 9 8 8 8 8 8 8
2 2 2 1 1 1 1 1 1 1 1 2 2 2 2 3 3 3 3 2 2 1 2 3 2 2 1 1 0 1 2 3 4 8 10 10 9 9 9 8 9 9 9
1 1 1 1 1 1 1 1 2 2 2 2 2 2 3 2 2 3 3 3 2 2 2 3 2 2 2 1 1 2 3 3 3 7 10 10 10 10 10 9 10 10 10
0 0 0 0 1 1 1 1 2 2 2 2 2 2 2 2 3 3 3 3 3 3 2 2 3 2 2 2 1 2 4 3 4 4 8 10 11 11 11 11 11 11 11
0 0 1 1 1 1 1 2 2 2 2 2 2 3 2 2 2 3 3 3 3 3 2 2 3 2 2 2 1 2 3 2 3 4 3 5 7 10 11 11 11 11 10
0 1 1 1 1 1 2 2 3 3 2 3 3 3 3 2 3 2 3 2 2 2 2 2 3 3 2 2 2 2 3 3 3 3 3 3 3 4 6 9 10 10 10
1 1 1 1 2 2 3 3 2 3 3 3 3 3 3 1 2 2 3 3 2 2 3 3 3 3 3 3 3 3 3 3 4 3 3 4 3 4 4 4 7 9 9
2 2 2 1 1 2 3 3 3 2 3 2 2 3 4 4 3 2 2 3 3 4 5 4 4 4 4 4 3 4 3 4 4 3 3 5 4 3 3 4 8 9 9
1 1 1 2 1 2 3 3 3 2 2 2 2 2 1 2 4 3 3 3 3 4 5 4 4 5 4 3 3 4 5 5 4 4 3 4 4 3 3 2 5 8 9
1 1 1 1 2 2 3 3 3 2 2 2 2 2 2 2 4 4 3 4 4 4 5 5 6 6 6 6 4 3 4 4 5 4 3 3 4 3 2 2 3 7 8
1 1 1 1 1 2 3 3 3 2 2 2 1 1 3 2 4 4 3 3 5 5 5 5 5 6 5 6 6 4 4 4 4 4 3 2 3 2 2 2 1 2 4
Wind_Direction
33 43 52 53 270 140 137 116 95 210 203 214 218 167 184 147 129 126 149 165 170 175 181 188 194 199 200 199 198 201 205 204 203 204 203 204 205 205 204 204 203 202 204
50 26 55 30 356 51 118 146 165 202 288 235 220 179 139 125 124 138 147 162 168 173 179 186 194 199 199 196 199 201 204 204 204 205 206 207 207 209 209 209 208 207 207
44 49 7 113 51 352 170 190 186 198 187 199 186 179 140 122 142 144 144 157 160 171 176 179 182 185 191 195 194 194 201 205 206 206 206 205 206 210 211 213 211 211 209
19 36 356 8 352 320 258 224 170 259 98 207 210 210 157 155 159 152 148 162 160 167 179 183 187 190 194 195 195 200 204 205 206 206 206 206 207 210 210 213 213 211 209
20 60 12 354 329 345 311 312 95 310 240 244 237 194 166 167 172 159 157 160 159 164 165 178 188 195 194 195 198 202 204 205 202 203 207 209 208 212 212 212 214 213 211
26 351 92 355 357 26 9 16 352 335 282 273 268 159 170 181 176 160 182 162 169 172 165 165 176 197 197 198 207 210 210 208 207 206 208 210 210 211 212 213 212 213 213
7 358 1 6 26 40 1 353 328 292 263 279 288 241 201 196 191 173 166 162 159 174 161 157 164 172 183 196 201 201 207 212 213 211 213 215 216 214 215 216 213 210 212
358 10 24 356 23 54 359 347 333 324 303 281 267 273 223 200 243 177 160 172 180 183 164 159 154 160 173 162 180 196 204 212 215 216 217 218 219 217 216 216 216 214 215
32 10 20 3 358 5 23 333 343 314 310 297 281 306 298 265 265 178 190 168 167 160 163 151 161 162 173 150 159 195 202 207 215 219 221 218 220 216 213 216 217 216 218
48 35 25 11 3 9 28 355 21 333 328 309 315 308 264 19 310 303 266 181 184 173 186 188 169 159 158 147 154 169 189 202 215 222 224 224 222 219 219 220 220 222 223
96 45 47 24 12 13 26 12 25 2 348 338 325 319 321 312 294 251 283 274 231 192 179 174 168 161 164 171 163 169 180 194 209 216 223 227 228 225 224 226 227 227 226
81 61 62 25 21 4 20 24 10 2 350 347 336 338 336 322 303 281 262 276 257 213 181 166 176 169 178 170 174 165 179 189 199 206 215 222 227 229 228 229 231 233 232
94 76 44 30 8 13 18 16 14 3 346 335 337 327 321 319 306 300 272 278 287 255 194 178 181 180 201 153 155 169 184 188 194 203 210 217 225 232 233 232 234 236 239
80 106 109 76 41 13 3 14 356 355 349 326 330 335 321 321 326 327 299 290 298 292 258 219 169 173 176 143 155 174 182 188 197 205 212 216 220 226 233 236 237 237 239
41 54 59 55 37 19 355 350 335 334 350 327 327 328 310 307 309 314 314 310 295 295 292 273 261 179 159 135 158 187 174 190 200 208 213 216 220 224 227 233 238 239 237
33 30 20 33 30 18 355 314 327 318 311 306 294 316 316 312 310 306 311 317 307 280 288 312 300 277 152 216 180 205 209 198 202 211 214 216 220 225 228 230 233 233 232
36 27 4 3 21 6 356 351 317 313 301 303 301 305 299 300 314 320 319 317 311 311 281 296 315 337 345 309 204 247 238 208 207 214 213 214 219 225 228 229 231 230 228
66 59 17 358 354 4 4 348 322 329 321 310 305 311 305 303 306 299 303 296 291 286 272 279 294 305 299 282 228 240 263 253 230 218 214 215 219 225 227 229 229 228 227
57 60 101 40 335 338 332 324 316 318 317 312 317 310 297 304 298 293 284 285 288 291 280 277 284 291 290 287 272 274 278 286 279 241 220 219 224 228 229 229 229 226 226
14 358 354 337 322 324 323 335 330 308 304 311 317 306 296 290 285 290 292 282 286 296 293 285 284 288 293 300 288 284 290 283 282 282 262 238 233 232 233 231 229 225 223
343 348 315 316 307 300 333 350 320 308 317 318 316 309 303 305 312 297 301 312 304 299 301 296 291 295 294 305 299 285 281 282 274 268 271 251 232 233 233 235 232 226 225
6 347 333 330 323 330 9 13 340 320 319 317 318 317 309 308 304 272 275 286 292 271 274 280 289 290 289 284 288 284 290 295 290 276 277 272 249 236 227 217 218 217 216
13 349 344 349 360 348 357 350 332 310 307 307 306 309 312 333 350 330 291 274 268 260 247 256 272 277 278 280 284 286 284 282 281 286 293 279 273 264 257 236 205 204 205
326 323 338 347 349 349 352 327 322 297 291 289 288 296 314 329 329 332 303 291 270 268 259 248 252 262 270 276 272 272 275 277 274 269 258 270 275 266 267 235 203 198 199
322 311 331 339 357 358 356 347 336 299 292 304 322 355 346 350 350 337 316 301 295 290 282 270 258 258 263 273 281 289 278 272 275 269 249 254 265 267 256 253 220 203 197
295 292 337 348 20 8 1 6 341 298 307 317 333 9 13 13 351 330 301 297 294 293 300 294 278 268 257 252 250 246 262 269 274 276 273 263 268 270 271 248 223 196 201